DAL241 KIAH-KMIA

Flight info

Callsign DAL241
Flight time 1h 47m
Altitude 41000
Route GUMBY3 LLA LEV Y290 GAWKS FROGZ5
Aircraft B772/H-DGVW/L

Departure

Time 2026-05-06 18:46
Airport George Bush Intercontinental Airport (KIAH)

Arrival

Time 2026-05-06 20:33
Airport Miami International Airport (KMIA)
Time Latitude Longitude Altitude Speed Heading
2026-05-06 17:57 29.98443 -95.34947 111 ft 0 kts 44°
2026-05-06 18:28 29.98432 -95.34959 111 ft 0 kts 44°
2026-05-06 18:28 29.98420 -95.34972 111 ft 0 kts 44°
2026-05-06 18:28 29.98419 -95.34973 111 ft 0 kts 339°
2026-05-06 18:35 29.98419 -95.34974 111 ft 0 kts 259°
2026-05-06 18:41 29.98418 -95.34982 111 ft 3 kts 259°
2026-05-06 18:41 29.98412 -95.35021 111 ft 6 kts 259°
2026-05-06 18:41 29.98403 -95.35073 111 ft 7 kts 258°
2026-05-06 18:41 29.98381 -95.35136 111 ft 10 kts 251°
2026-05-06 18:42 29.98397 -95.35211 111 ft 10 kts 322°
2026-05-06 18:42 29.98458 -95.35252 111 ft 11 kts 330°
2026-05-06 18:42 29.98522 -95.35295 111 ft 10 kts 330°
2026-05-06 18:42 29.98584 -95.35336 111 ft 10 kts 331°
2026-05-06 18:43 29.98644 -95.35373 111 ft 10 kts 332°
2026-05-06 18:43 29.98702 -95.35408 111 ft 9 kts 333°
2026-05-06 18:43 29.98758 -95.35441 111 ft 9 kts 333°
2026-05-06 18:43 29.98812 -95.35476 111 ft 8 kts 330°
2026-05-06 18:44 29.98862 -95.35509 111 ft 8 kts 329°
2026-05-06 18:44 29.98876 -95.35564 111 ft 8 kts 243°
2026-05-06 18:44 29.98848 -95.35625 111 ft 9 kts 242°
2026-05-06 18:44 29.98817 -95.35690 111 ft 10 kts 241°
2026-05-06 18:45 29.98783 -95.35753 111 ft 9 kts 221°
2026-05-06 18:45 29.98740 -95.35756 111 ft 6 kts 156°
2026-05-06 18:45 29.98691 -95.35728 111 ft 20 kts 153°
2026-05-06 18:45 29.98480 -95.35602 111 ft 84 kts 151°
2026-05-06 18:46 29.97308 -95.34878 185 ft 189 kts 151°
2026-05-06 18:46 29.96124 -95.34095 1089 ft 203 kts 151°
2026-05-06 18:46 29.94952 -95.33136 2290 ft 209 kts 139°
2026-05-06 18:46 29.94010 -95.31861 3457 ft 205 kts 127°
2026-05-06 18:47 29.93230 -95.30475 4133 ft 218 kts 127°
2026-05-06 18:47 29.92628 -95.29513 4587 ft 221 kts 130°
2026-05-06 18:47 29.91707 -95.28139 5588 ft 214 kts 131°
2026-05-06 18:47 29.90378 -95.26230 6151 ft 246 kts 131°
2026-05-06 18:48 29.89685 -95.25163 6510 ft 258 kts 130°
2026-05-06 18:48 29.88229 -95.22839 7166 ft 272 kts 130°
2026-05-06 18:48 29.87466 -95.21674 7490 ft 276 kts 131°
2026-05-06 18:48 29.86303 -95.19908 8394 ft 278 kts 130°
2026-05-06 18:49 29.85183 -95.18078 9308 ft 281 kts 128°
2026-05-06 18:49 29.84105 -95.16164 10295 ft 284 kts 127°
2026-05-06 18:49 29.83147 -95.14066 10461 ft 320 kts 116°
2026-05-06 18:49 29.82516 -95.11456 10436 ft 361 kts 106°
2026-05-06 18:50 29.82112 -95.08465 10840 ft 383 kts 100°
2026-05-06 18:50 29.81937 -95.05358 11465 ft 398 kts 95°
2026-05-06 18:50 29.81873 -95.02136 12240 ft 406 kts 95°
2026-05-06 18:50 29.81794 -94.98871 13046 ft 413 kts 94°
2026-05-06 18:51 29.81878 -94.95538 13822 ft 420 kts 90°
2026-05-06 18:51 29.82114 -94.92145 14578 ft 427 kts 88°
2026-05-06 18:51 29.82385 -94.88733 15312 ft 433 kts 88°
2026-05-06 18:51 29.82625 -94.85243 16018 ft 439 kts 89°
2026-05-06 18:52 29.82846 -94.81720 16715 ft 445 kts 89°
2026-05-06 18:52 29.83075 -94.78109 17402 ft 451 kts 88°
2026-05-06 18:52 29.83307 -94.74485 18078 ft 458 kts 88°
2026-05-06 18:52 29.83565 -94.70810 18755 ft 463 kts 88°
2026-05-06 18:53 29.83837 -94.67097 19417 ft 469 kts 87°
2026-05-06 18:53 29.84118 -94.63347 20060 ft 474 kts 88°
2026-05-06 18:53 29.84385 -94.59562 20680 ft 479 kts 88°
2026-05-06 18:53 29.84648 -94.55707 21284 ft 485 kts 88°
2026-05-06 18:54 29.84909 -94.51833 21894 ft 490 kts 88°
2026-05-06 18:54 29.85172 -94.47908 22514 ft 494 kts 88°
2026-05-06 18:54 29.85437 -94.43938 23050 ft 500 kts 88°
2026-05-06 18:54 29.85704 -94.39937 23590 ft 505 kts 88°
2026-05-06 18:55 29.85973 -94.35899 24127 ft 509 kts 88°
2026-05-06 18:55 29.86200 -94.31819 24633 ft 514 kts 91°
2026-05-06 18:55 29.86206 -94.27634 25133 ft 518 kts 95°
2026-05-06 18:55 29.86051 -94.23489 25650 ft 521 kts 96°
2026-05-06 18:56 29.85858 -94.19298 26136 ft 527 kts 96°
2026-05-06 18:56 29.85707 -94.15081 26674 ft 531 kts 96°
2026-05-06 18:56 29.85572 -94.10812 27117 ft 536 kts 96°
2026-05-06 18:56 29.85471 -94.06516 27587 ft 542 kts 93°
2026-05-06 18:57 29.85598 -94.02151 28045 ft 549 kts 89°
2026-05-06 18:57 29.85915 -93.97759 28503 ft 555 kts 87°
2026-05-06 18:57 29.86368 -93.93316 28962 ft 560 kts 85°
2026-05-06 18:57 29.86900 -93.88860 29350 ft 566 kts 84°
2026-05-06 18:58 29.87438 -93.84371 29814 ft 569 kts 85°
2026-05-06 18:58 29.87949 -93.79834 30273 ft 572 kts 85°
2026-05-06 18:58 29.88442 -93.75231 30733 ft 575 kts 85°
2026-05-06 18:58 29.88921 -93.70646 31096 ft 579 kts 85°
2026-05-06 18:59 29.89397 -93.66063 31672 ft 577 kts 85°
2026-05-06 18:59 29.89885 -93.61493 32246 ft 577 kts 84°
2026-05-06 18:59 29.90385 -93.56903 32830 ft 574 kts 84°
2026-05-06 18:59 29.90868 -93.52347 33303 ft 575 kts 84°
2026-05-06 19:00 29.91345 -93.47775 33783 ft 574 kts 84°
2026-05-06 19:00 29.91816 -93.43223 34213 ft 574 kts 84°
2026-05-06 19:00 29.92287 -93.38662 34820 ft 570 kts 84°
2026-05-06 19:00 29.92750 -93.34140 35291 ft 569 kts 84°
2026-05-06 19:01 29.93210 -93.29636 35760 ft 567 kts 84°
2026-05-06 19:01 29.93686 -93.25089 36263 ft 563 kts 84°
2026-05-06 19:01 29.94153 -93.20618 36701 ft 562 kts 84°
2026-05-06 19:01 29.94605 -93.16152 37099 ft 560 kts 84°
2026-05-06 19:02 29.95047 -93.11704 37490 ft 559 kts 84°
2026-05-06 19:02 29.95486 -93.07268 37844 ft 558 kts 85°
2026-05-06 19:02 29.95923 -93.02843 38199 ft 556 kts 85°
2026-05-06 19:02 29.96359 -92.98419 38558 ft 554 kts 85°
2026-05-06 19:03 29.96615 -92.94009 38841 ft 551 kts 94°
2026-05-06 19:03 29.96220 -92.89650 38954 ft 546 kts 105°
2026-05-06 19:03 29.95100 -92.85498 38903 ft 540 kts 120°
2026-05-06 19:04 29.91086 -92.78372 38954 ft 529 kts 134°
2026-05-06 19:04 29.86583 -92.71626 38955 ft 527 kts 133°
2026-05-06 19:05 29.82233 -92.64903 38957 ft 524 kts 133°
2026-05-06 19:05 29.78158 -92.57954 38958 ft 526 kts 130°
2026-05-06 19:06 29.74140 -92.50905 38960 ft 529 kts 130°
2026-05-06 19:06 29.70069 -92.43850 38959 ft 530 kts 130°
2026-05-06 19:07 29.66250 -92.36523 38953 ft 537 kts 121°
2026-05-06 19:07 29.64025 -92.28314 38965 ft 541 kts 107°
2026-05-06 19:08 29.62512 -92.19831 38961 ft 546 kts 106°
2026-05-06 19:08 29.60866 -92.11305 38961 ft 548 kts 107°
2026-05-06 19:09 29.59104 -92.02792 38960 ft 548 kts 108°
2026-05-06 19:09 29.57347 -91.94301 38963 ft 547 kts 107°
2026-05-06 19:10 29.55590 -91.85770 38967 ft 546 kts 108°
2026-05-06 19:10 29.53817 -91.77298 38977 ft 546 kts 108°
2026-05-06 19:11 29.52036 -91.68841 38981 ft 546 kts 108°
2026-05-06 19:11 29.50249 -91.60391 38983 ft 545 kts 108°
2026-05-06 19:12 29.48459 -91.51956 38985 ft 544 kts 108°
2026-05-06 19:12 29.46665 -91.43536 38985 ft 543 kts 108°
2026-05-06 19:13 29.44860 -91.35089 38987 ft 543 kts 108°
2026-05-06 19:13 29.43062 -91.26700 38993 ft 542 kts 108°
2026-05-06 19:14 29.41258 -91.18315 38995 ft 542 kts 108°
2026-05-06 19:14 29.39452 -91.09945 38999 ft 541 kts 108°
2026-05-06 19:15 29.37641 -91.01584 39000 ft 541 kts 108°
2026-05-06 19:15 29.35825 -90.93223 39003 ft 541 kts 108°
2026-05-06 19:16 29.34007 -90.84877 39004 ft 540 kts 108°
2026-05-06 19:16 29.32183 -90.76533 39006 ft 540 kts 108°
2026-05-06 19:17 29.30343 -90.68144 39007 ft 540 kts 108°
2026-05-06 19:17 29.28508 -90.59804 39013 ft 541 kts 108°
2026-05-06 19:18 29.26669 -90.51470 39014 ft 541 kts 108°
2026-05-06 19:18 29.24838 -90.43130 39016 ft 541 kts 108°
2026-05-06 19:19 29.22997 -90.34792 39017 ft 540 kts 108°
2026-05-06 19:19 29.21123 -90.26428 39017 ft 540 kts 108°
2026-05-06 19:20 29.19255 -90.18110 39018 ft 540 kts 108°
2026-05-06 19:20 29.17310 -90.09830 39017 ft 538 kts 112°
2026-05-06 19:21 29.14626 -90.01873 39020 ft 536 kts 118°
2026-05-06 19:21 29.11561 -89.94143 39018 ft 534 kts 119°
2026-05-06 19:22 29.08544 -89.86396 39017 ft 533 kts 118°
2026-05-06 19:22 29.05599 -89.78661 39020 ft 532 kts 118°
2026-05-06 19:23 29.02658 -89.70844 39021 ft 532 kts 117°
2026-05-06 19:23 28.99756 -89.63076 39022 ft 532 kts 118°
2026-05-06 19:24 28.96835 -89.55321 39022 ft 532 kts 118°
2026-05-06 19:24 28.93906 -89.47575 39023 ft 532 kts 118°
2026-05-06 19:25 28.90975 -89.39846 39023 ft 531 kts 118°
2026-05-06 19:25 28.88040 -89.32125 39023 ft 531 kts 118°
2026-05-06 19:26 28.85101 -89.24410 39031 ft 531 kts 118°
2026-05-06 19:26 28.82143 -89.16660 39043 ft 531 kts 118°
2026-05-06 19:27 28.79197 -89.08958 39047 ft 531 kts 118°
2026-05-06 19:27 28.76244 -89.01252 39049 ft 531 kts 118°
2026-05-06 19:28 28.73289 -88.93557 39051 ft 530 kts 118°
2026-05-06 19:28 28.70334 -88.85877 39053 ft 530 kts 118°
2026-05-06 19:29 28.67373 -88.78199 39056 ft 530 kts 118°
2026-05-06 19:29 28.64390 -88.70478 39059 ft 530 kts 118°
2026-05-06 19:30 28.61423 -88.62815 39062 ft 530 kts 118°
2026-05-06 19:30 28.58451 -88.55155 39065 ft 529 kts 118°
2026-05-06 19:31 28.55481 -88.47513 39067 ft 529 kts 117°
2026-05-06 19:31 28.51020 -88.36055 39069 ft 529 kts 117°
2026-05-06 19:32 28.48062 -88.28424 39070 ft 528 kts 117°
2026-05-06 19:32 28.45057 -88.20767 39069 ft 528 kts 117°
2026-05-06 19:33 28.42062 -88.13155 39070 ft 528 kts 117°
2026-05-06 19:33 28.39070 -88.05560 39069 ft 528 kts 117°
2026-05-06 19:34 28.36378 -87.97824 39068 ft 529 kts 111°
2026-05-06 19:34 28.34172 -87.89859 39069 ft 529 kts 110°
2026-05-06 19:35 28.31964 -87.81902 39068 ft 530 kts 110°
2026-05-06 19:35 28.29674 -87.73961 39065 ft 530 kts 111°
2026-05-06 19:36 28.27351 -87.65981 39063 ft 531 kts 111°
2026-05-06 19:36 28.25070 -87.58022 39064 ft 530 kts 111°
2026-05-06 19:37 28.22770 -87.50098 39064 ft 530 kts 111°
2026-05-06 19:37 28.20847 -87.43513 39064 ft 530 kts 111°
2026-05-06 19:38 28.18136 -87.34259 39063 ft 530 kts 111°
2026-05-06 19:38 28.15810 -87.26344 39065 ft 530 kts 111°
2026-05-06 19:39 28.13476 -87.18419 39063 ft 531 kts 111°
2026-05-06 19:39 28.11125 -87.10450 39063 ft 531 kts 111°
2026-05-06 19:40 28.08806 -87.02530 39062 ft 531 kts 111°
2026-05-06 19:40 28.06455 -86.94628 39063 ft 531 kts 111°
2026-05-06 19:41 28.04092 -86.86716 39062 ft 531 kts 111°
2026-05-06 19:41 28.01730 -86.78813 39070 ft 530 kts 111°
2026-05-06 19:42 27.99776 -86.72194 39075 ft 530 kts 110°
2026-05-06 19:42 27.97488 -86.64285 39076 ft 528 kts 110°
2026-05-06 19:43 27.95203 -86.56432 39074 ft 526 kts 110°
2026-05-06 19:43 27.92912 -86.48585 39080 ft 526 kts 110°
2026-05-06 19:44 27.90614 -86.40738 39081 ft 527 kts 110°
2026-05-06 19:44 27.88339 -86.32856 39082 ft 528 kts 110°
2026-05-06 19:45 27.86036 -86.24925 39082 ft 529 kts 110°
2026-05-06 19:45 27.83728 -86.17039 39083 ft 529 kts 110°
2026-05-06 19:46 27.81417 -86.09176 39083 ft 529 kts 110°
2026-05-06 19:46 27.79101 -86.01312 39087 ft 528 kts 110°
2026-05-06 19:47 27.76779 -85.93451 39088 ft 528 kts 110°
2026-05-06 19:47 27.74439 -85.85543 39088 ft 528 kts 110°
2026-05-06 19:48 27.72110 -85.77693 39089 ft 528 kts 110°
2026-05-06 19:48 27.69780 -85.69859 39089 ft 528 kts 110°
2026-05-06 19:49 27.67466 -85.62009 39090 ft 527 kts 110°
2026-05-06 19:49 27.65124 -85.54185 39093 ft 527 kts 110°
2026-05-06 19:50 27.62773 -85.46367 39095 ft 527 kts 110°
2026-05-06 19:50 27.60421 -85.38554 39095 ft 527 kts 110°
2026-05-06 19:51 27.58384 -85.30581 39095 ft 528 kts 102°
2026-05-06 19:51 27.57119 -85.22449 39096 ft 528 kts 101°
2026-05-06 19:52 27.55683 -85.14351 39095 ft 528 kts 102°
2026-05-06 19:52 27.54291 -85.06235 39095 ft 528 kts 101°
2026-05-06 19:53 27.52866 -84.98127 39090 ft 528 kts 102°
2026-05-06 19:53 27.51429 -84.90029 39089 ft 528 kts 102°
2026-05-06 19:54 27.49980 -84.81868 39089 ft 528 kts 102°
2026-05-06 19:54 27.48542 -84.73776 39088 ft 528 kts 101°
2026-05-06 19:55 27.47123 -84.65674 39088 ft 528 kts 101°
2026-05-06 19:55 27.45670 -84.57584 39089 ft 528 kts 102°
2026-05-06 19:56 27.44209 -84.49487 39088 ft 529 kts 102°
2026-05-06 19:56 27.42743 -84.41375 39088 ft 529 kts 102°
2026-05-06 19:57 27.41276 -84.33276 39088 ft 529 kts 102°
2026-05-06 19:57 27.39796 -84.25169 39083 ft 530 kts 102°
2026-05-06 19:58 27.38301 -84.17020 39083 ft 530 kts 102°
2026-05-06 19:58 27.36809 -84.08917 39083 ft 530 kts 102°
2026-05-06 19:59 27.35314 -84.00813 39083 ft 530 kts 102°
2026-05-06 19:59 27.33855 -83.92710 39082 ft 530 kts 101°
2026-05-06 20:00 27.32373 -83.84603 39079 ft 530 kts 101°
2026-05-06 20:00 27.30878 -83.76507 39081 ft 530 kts 101°
2026-05-06 20:01 27.29368 -83.68366 39084 ft 529 kts 101°
2026-05-06 20:01 27.27862 -83.60279 39083 ft 529 kts 101°
2026-05-06 20:02 27.26352 -83.52202 39083 ft 529 kts 101°
2026-05-06 20:02 27.24840 -83.44131 39083 ft 529 kts 101°
2026-05-06 20:03 27.23345 -83.36053 39082 ft 528 kts 101°
2026-05-06 20:03 27.21818 -83.27998 39083 ft 528 kts 102°
2026-05-06 20:04 27.20282 -83.19934 39082 ft 528 kts 101°
2026-05-06 20:04 27.18739 -83.11849 39082 ft 528 kts 101°
2026-05-06 20:05 27.17211 -83.03787 39081 ft 528 kts 101°
2026-05-06 20:05 27.15668 -82.95735 39081 ft 528 kts 101°
2026-05-06 20:06 27.14103 -82.87694 39077 ft 528 kts 103°
2026-05-06 20:06 27.11516 -82.80035 39081 ft 527 kts 120°
2026-05-06 20:07 27.07535 -82.73062 39080 ft 528 kts 124°
2026-05-06 20:07 27.03606 -82.66170 39073 ft 528 kts 123°
2026-05-06 20:08 27.00381 -82.60316 39071 ft 528 kts 123°
2026-05-06 20:08 26.96138 -82.52630 39072 ft 527 kts 123°
2026-05-06 20:09 26.92209 -82.45707 39073 ft 525 kts 127°
2026-05-06 20:09 26.87210 -82.39858 38777 ft 517 kts 143°
2026-05-06 20:10 26.84358 -82.37416 38098 ft 516 kts 147°
2026-05-06 20:10 26.81480 -82.35030 37553 ft 516 kts 144°
2026-05-06 20:10 26.78739 -82.32459 36983 ft 516 kts 140°
2026-05-06 20:10 26.76105 -82.29685 36037 ft 525 kts 138°
2026-05-06 20:11 26.73466 -82.26827 35235 ft 529 kts 139°
2026-05-06 20:11 26.70712 -82.24083 34366 ft 533 kts 142°
2026-05-06 20:11 26.67816 -82.21493 33612 ft 535 kts 144°
2026-05-06 20:11 26.64886 -82.18870 33069 ft 533 kts 142°
2026-05-06 20:12 26.62095 -82.16175 32689 ft 527 kts 140°
2026-05-06 20:12 26.59367 -82.13482 32280 ft 522 kts 141°
2026-05-06 20:12 26.56621 -82.10872 31769 ft 519 kts 142°
2026-05-06 20:12 26.53845 -82.08320 31217 ft 517 kts 142°
2026-05-06 20:13 26.51112 -82.05719 30541 ft 518 kts 139°
2026-05-06 20:13 26.48478 -82.02994 30070 ft 514 kts 137°
2026-05-06 20:13 26.45900 -82.00251 29207 ft 512 kts 137°
2026-05-06 20:13 26.43345 -81.97584 28298 ft 498 kts 138°
2026-05-06 20:14 26.40812 -81.95032 27096 ft 489 kts 139°
2026-05-06 20:14 26.38263 -81.92548 25998 ft 481 kts 139°
2026-05-06 20:14 26.35759 -81.90089 25118 ft 480 kts 138°
2026-05-06 20:14 26.33294 -81.87605 24562 ft 477 kts 138°
2026-05-06 20:15 26.30842 -81.85116 23969 ft 477 kts 137°
2026-05-06 20:15 26.28380 -81.82600 23364 ft 476 kts 137°
2026-05-06 20:15 26.26041 -81.80023 22950 ft 469 kts 131°
2026-05-06 20:15 26.24023 -81.77203 22420 ft 466 kts 124°
2026-05-06 20:16 26.22321 -81.74161 21845 ft 463 kts 118°
2026-05-06 20:16 26.20791 -81.71054 21647 ft 451 kts 116°
2026-05-06 20:16 26.19372 -81.67962 21094 ft 445 kts 114°
2026-05-06 20:16 26.18051 -81.64908 20177 ft 433 kts 113°
2026-05-06 20:17 26.16774 -81.61895 19424 ft 430 kts 113°
2026-05-06 20:17 26.15474 -81.58934 19080 ft 424 kts 114°
2026-05-06 20:17 26.14147 -81.56003 18451 ft 425 kts 114°
2026-05-06 20:17 26.12873 -81.53077 18216 ft 416 kts 113°
2026-05-06 20:18 26.11640 -81.50129 17554 ft 417 kts 112°
2026-05-06 20:18 26.10387 -81.47189 16706 ft 425 kts 114°
2026-05-06 20:18 26.09075 -81.44264 16425 ft 416 kts 115°
2026-05-06 20:18 26.07779 -81.41457 16258 ft 405 kts 115°
2026-05-06 20:19 26.06539 -81.38667 15432 ft 403 kts 112°
2026-05-06 20:19 26.05410 -81.35833 14422 ft 397 kts 111°
2026-05-06 20:19 26.04279 -81.33096 13646 ft 380 kts 113°
2026-05-06 20:19 26.03137 -81.30543 13339 ft 364 kts 114°
2026-05-06 20:20 26.01988 -81.28059 12987 ft 361 kts 114°
2026-05-06 20:20 26.00838 -81.25556 12405 ft 364 kts 114°
2026-05-06 20:20 25.99752 -81.23043 12027 ft 361 kts 112°
2026-05-06 20:20 25.98705 -81.20535 11761 ft 355 kts 112°
2026-05-06 20:21 25.97641 -81.18014 11451 ft 355 kts 113°
2026-05-06 20:21 25.96566 -81.15547 11121 ft 355 kts 114°
2026-05-06 20:21 25.95480 -81.13151 11098 ft 348 kts 115°
2026-05-06 20:21 25.94371 -81.10778 11130 ft 341 kts 115°
2026-05-06 20:22 25.93316 -81.08439 11043 ft 336 kts 114°
2026-05-06 20:22 25.92316 -81.06045 10402 ft 346 kts 112°
2026-05-06 20:22 25.91354 -81.03652 10212 ft 332 kts 113°
2026-05-06 20:22 25.90392 -81.01411 9927 ft 307 kts 114°
2026-05-06 20:23 25.89550 -80.99327 9865 ft 290 kts 111°
2026-05-06 20:23 25.88854 -80.97235 9451 ft 291 kts 107°
2026-05-06 20:23 25.88161 -80.95124 9122 ft 290 kts 111°
2026-05-06 20:23 25.87347 -80.93137 9065 ft 279 kts 117°
2026-05-06 20:24 25.86435 -80.91266 8792 ft 277 kts 116°
2026-05-06 20:24 25.85627 -80.89255 8345 ft 283 kts 112°
2026-05-06 20:24 25.84895 -80.87247 8244 ft 274 kts 111°
2026-05-06 20:24 25.84242 -80.85310 8181 ft 265 kts 109°
2026-05-06 20:25 25.83590 -80.83376 7663 ft 271 kts 112°
2026-05-06 20:25 25.82851 -80.81462 7450 ft 266 kts 113°
2026-05-06 20:25 25.82095 -80.79597 7190 ft 268 kts 114°
2026-05-06 20:25 25.81302 -80.77715 6907 ft 270 kts 115°
2026-05-06 20:26 25.80537 -80.75813 6633 ft 270 kts 112°
2026-05-06 20:26 25.79832 -80.73879 6350 ft 271 kts 111°
2026-05-06 20:26 25.79121 -80.71945 6048 ft 272 kts 113°
2026-05-06 20:26 25.78369 -80.70030 5776 ft 271 kts 114°
2026-05-06 20:27 25.77684 -80.68101 5522 ft 267 kts 106°
2026-05-06 20:27 25.77363 -80.66059 5270 ft 265 kts 96°
2026-05-06 20:27 25.77285 -80.64052 4978 ft 265 kts 90°
2026-05-06 20:27 25.77349 -80.61994 4679 ft 263 kts 88°
2026-05-06 20:28 25.77442 -80.59988 4402 ft 261 kts 88°
2026-05-06 20:28 25.77507 -80.57994 4130 ft 258 kts 88°
2026-05-06 20:28 25.77590 -80.56024 3905 ft 254 kts 88°
2026-05-06 20:28 25.77671 -80.54092 3698 ft 249 kts 88°
2026-05-06 20:29 25.77744 -80.52173 3503 ft 249 kts 87°
2026-05-06 20:29 25.77828 -80.50257 3273 ft 249 kts 87°
2026-05-06 20:29 25.77908 -80.48354 3028 ft 248 kts 87°
2026-05-06 20:29 25.77987 -80.46433 2671 ft 251 kts 88°
2026-05-06 20:30 25.78067 -80.44508 2354 ft 250 kts 87°
2026-05-06 20:30 25.78228 -80.40818 1712 ft 226 kts 88°
2026-05-06 20:30 25.78290 -80.39126 1525 ft 207 kts 88°
2026-05-06 20:31 25.78359 -80.37614 1276 ft 191 kts 88°
2026-05-06 20:31 25.78414 -80.36199 943 ft 172 kts 89°
2026-05-06 20:31 25.78461 -80.34976 680 ft 146 kts 89°
2026-05-06 20:31 25.78509 -80.33916 417 ft 128 kts 89°
2026-05-06 20:32 25.78548 -80.32973 232 ft 123 kts 89°
2026-05-06 20:32 25.78588 -80.31977 196 ft 132 kts 89°
2026-05-06 20:32 25.78632 -80.30983 77 ft 126 kts 88°
2026-05-06 20:32 25.78668 -80.30102 23 ft 96 kts 88°
2026-05-06 20:33 25.78689 -80.29518 22 ft 64 kts 88°
2026-05-06 20:33 25.78708 -80.29085 22 ft 49 kts 86°
2026-05-06 20:33 25.78724 -80.28804 22 ft 22 kts 83°
2026-05-06 20:33 25.78733 -80.28641 22 ft 18 kts 88°
2026-05-06 20:34 25.78750 -80.28530 22 ft 14 kts 57°
2026-05-06 20:34 25.78814 -80.28456 22 ft 13 kts 43°
2026-05-06 20:34 25.78876 -80.28388 22 ft 12 kts 64°
2026-05-06 20:34 25.78890 -80.28326 22 ft 12 kts 82°
2026-05-06 20:35 25.78901 -80.28230 22 ft 13 kts 85°
2026-05-06 20:35 25.78912 -80.28130 22 ft 13 kts 80°
2026-05-06 20:35 25.78930 -80.28035 22 ft 12 kts 73°
2026-05-06 20:35 25.78960 -80.27949 22 ft 12 kts 52°
2026-05-06 20:36 25.79019 -80.27926 22 ft 2 kts 10°
2026-05-06 20:36 25.79030 -80.27924 22 ft 2 kts 11°
2026-05-06 20:36 25.79035 -80.27923 22 ft 0 kts 11°